This demonstration page uses our WeatherBlox Daily Observations layout. Learn more.

Left ArrowRight Arrow

39.95238, -75.16362

Hourly Observations for February 5, 2017

Temp ( °F °C ) Dew Point ( °F °C ) Humidity (%) Winds ( mph kmh ) Pressure ( in mb ) Visibility ( mi km ) Precip ( " mm )
12:54 am 00:54 Cloudy 31 -0.6 13 -10.6 47 47 S 9 15 30.27 1025 10 16 0.00 0.00
1:54 am 01:54 Cloudy 31 -0.6 16 -8.9 54 54 SSW 9 15 30.25 1024 10 16 0.00 0.00
2:54 am 02:54 Cloudy 31 -0.6 18 -7.8 59 59 SSW 7 11 30.22 1023 10 16 0.00 0.00
3:54 am 03:54 Cloudy 30 -1.1 19 -7.2 64 64 S 5 7 30.19 1022 10 16 0.00 0.00
4:54 am 04:54 Cloudy 29 -1.7 19 -7.2 66 66 S 6 9 30.16 1021 10 16 0.00 0.00
5:54 am 05:54 Mostly Cloudy 29 -1.7 19 -7.2 66 66 SSW 7 11 30.14 1021 10 16 0.00 0.00
6:54 am 06:54 Mostly Cloudy 31 -0.6 19 -7.2 61 61 SSW 10 17 30.11 1020 10 16 0.00 0.00
7:54 am 07:54 Cloudy 33 0.6 20 -6.7 58 58 SSW 12 19 30.09 1019 10 16 0.00 0.00
8:54 am 08:54 Cloudy 34 1.1 21 -6.1 59 59 SSW 14 22 30.07 1018 10 16 0.00 0.00
9:54 am 09:54 Cloudy 36 2.2 21 -6.1 55 55 SW 16 26 30.04 1017 10 16 0.00 0.00
10:54 am 10:54 Cloudy 38 3.3 18 -7.8 44 44 SW 16 26 30.01 1016 10 16 0.00 0.00
11:54 am 11:54 Cloudy 39 3.9 18 -7.8 43 43 WSW 15 24 29.97 1015 10 16 0.00 0.00
12:54 pm 12:54 Cloudy 40 4.4 19 -7.2 43 43 WSW 14 22 29.94 1014 10 16 0.00 0.00
1:54 pm 13:54 Cloudy 41 5 19 -7.2 41 41 WSW 10 17 29.90 1013 10 16 0.00 0.00
2:54 pm 14:54 Cloudy 43 6.1 19 -7.2 38 38 SW 12 19 29.88 1012 10 16 0.00 0.00
3:54 pm 15:54 Cloudy 43 6.1 20 -6.7 40 40 WSW 12 19 29.90 1013 10 16 0.00 0.00
4:54 pm 16:54 Mostly Sunny 43 6.1 20 -6.7 40 40 SW 9 15 29.91 1013 10 16 0.00 0.00
5:54 pm 17:54 Partly Cloudy 41 5 20 -6.7 43 43 SW 10 17 29.93 1014 10 16 0.00 0.00
6:54 pm 18:54 Mostly Clear 41 5 20 -6.7 43 43 SW 10 17 29.94 1014 10 16 0.00 0.00
7:54 pm 19:54 Partly Cloudy 37 2.8 20 -6.7 50 50 SW 6 9 29.95 1014 10 16 0.00 0.00
8:54 pm 20:54 Mostly Cloudy 39 3.9 20 -6.7 46 46 WSW 9 15 29.95 1014 10 16 0.00 0.00
9:54 pm 21:54 Partly Cloudy 36 2.2 22 -5.6 57 57 W 8 13 29.97 1015 10 16 0.00 0.00
10:54 pm 22:54 Mostly Cloudy 37 2.8 24 -4.4 59 59 WSW 8 13 29.98 1015 10 16 0.00 0.00
11:54 pm 23:54 Cloudy 38 3.3 25 -3.9 60 60 WSW 7 11 29.99 1016 10 16 0.00 0.00

Powered by AerisWeather